[[{"header":{"parameterUnit":"m.s-1","parameterCategory":1,"la1":30.2991,"la2":30.254,"lo1":-89.0895,"lo2":-89.0444,"dy":0.0017,"dx":0.0017,"nx":28,"ny":28,"refTime":"2023-10-11T03:00:00:Z","depth":0,"parameterNumber":2,"parameterNumberName":"U-component_of_WINDS"},"data":[0,0,0,0,0,0,0,0,0,0,0,0,0,0,0,0,0,0,0,0,0,0,0,0,0,0,0,0,0,0,0,0,0,0,0,0,0,0,0,0,0,0,0,0,0,0,0,0,0,0,0,0,0,0,0,0,0,0,-4.1226,-4.1227,0,-4.1263,-4.1263,-4.1263,-4.1155,-4.1151,-4.1148,-4.1145,-4.1183,-4.1187,-4.1191,0,0,0,0,0,0,0,0,0,0,0,0,0,-4.1065,-4.1068,-4.1226,-4.1227,-4.1227,-4.1262,-4.1263,-4.1263,-4.1155,-4.1151,-4.1147,-4.1143,-4.1182,-4.1187,-4.1192,0,0,0,0,0,0,0,0,0,0,0,0,0,-4.1121,-4.1069,-4.1226,-4.1177,-4.1173,-4.1262,-4.1263,-4.1264,-4.1156,-4.1151,-4.1146,-4.1141,-4.118,-4.1186,-4.1192,-4.133,0,0,-4.1211,-4.1214,0,0,0,0,0,0,0,0,-4.1118,-4.1127,-4.1184,-4.1181,-4.1177,-4.1199,-4.122,-4.1286,-4.1157,-4.1163,-4.1145,-4.1139,-4.1193,-4.1197,-4.1215,-4.1332,-4.1334,-4.1212,-4.1215,-4.1218,-4.122,0,0,0,0,0,0,0,-4.1115,-4.1125,-4.1241,-4.1185,-4.1181,-4.1154,-4.1157,-4.1232,-4.1205,-4.1162,-4.1154,-4.116,-4.1189,-4.1209,-4.1215,-4.1334,-4.1212,-4.1217,-4.1221,-4.1223,-4.1567,-4.1572,0,0,0,0,0,0,-4.1117,-4.1123,-4.1239,-4.1242,-4.1135,-4.1161,-4.1164,-4.1197,-4.1204,-4.12,-4.1164,-4.1155,-4.1201,-4.1208,-4.1216,-4.1379,-4.1218,-4.1224,-4.1227,-4.1562,-4.1568,-4.1574,0,0,0,0,0,0,-4.1114,-4.1128,-4.1238,-4.118,-4.1192,-4.1169,-4.1207,-4.12,-4.122,-4.1206,-4.12,-4.1189,-4.1198,-4.1207,-4.1303,-4.1378,-4.1227,-4.1232,-4.1555,-4.1564,-4.1571,-4.1705,0,0,0,0,0,0,-4.111,-4.1128,-4.118,-4.1182,-4.1196,-4.1324,-4.1212,-4.1205,-4.1231,-4.1219,-4.1228,-4.1225,-4.1195,-4.1294,-4.1309,-4.1384,-4.1237,-4.1548,-4.1559,-4.1569,-4.1693,-4.1716,-4.1736,0,0,0,0,0,-4.1104,-4.1216,-4.1183,-4.1198,-4.126,-4.1329,-4.1336,-4.1299,-4.1237,-4.129,-4.128,-4.1224,-4.1368,-4.1305,-4.1321,-4.1399,-4.1543,-4.1556,-4.1568,-4.1684,-4.1712,-4.1735,0,0,0,0,0,0,-4.1223,-4.1215,-4.1179,-4.1295,-4.1313,-4.131,-4.1375,-4.133,-4.1366,-4.1354,-4.1306,-4.1309,-4.1413,-4.1415,-4.1346,-4.1533,-4.1445,-4.1461,-4.1528,-4.1554,-4.1575,-4.1573,-4.1242,0,0,0,0,0,-4.1263,-4.1319,-4.1309,-4.1413,-4.1424,-4.1398,-4.1427,-4.1396,-4.1414,-4.1421,-4.1419,-4.1438,-4.1487,-4.1521,-4.1565,-4.1693,-4.1694,-4.1755,-4.1776,-4.1794,-4.1808,-4.1876,-4.1903,-4.1614,-4.1614,-4.1614,0,0,-4.1346,-4.1349,-4.1387,-4.1437,-4.1447,-4.1507,-4.1405,-4.1473,-4.1516,-4.1431,-4.1521,-4.152,-4.1539,-4.1651,-4.1701,-4.1656,-4.1888,-4.1809,-4.1823,-4.1828,-4.1892,-4.1919,-4.1943,-4.1622,-4.1621,-4.162,0,0,-4.1527,-4.1535,-4.1622,-4.1635,-4.1652,-4.1634,-4.1656,-4.166,-4.1656,-4.1745,-4.1683,-4.1734,-4.182,-4.1836,-4.1855,-4.2044,-4.1994,-4.206,-4.2171,-4.2238,-4.2261,-4.2281,-4.2348,-4.2373,-4.2074,-4.2074,-4.2074,0,-4.1628,-4.1715,-4.1672,-4.1744,-4.1768,-4.1693,-4.1781,-4.1796,-4.1828,-4.1846,-4.1796,-4.1902,-4.191,-4.2025,-4.2071,-4.2089,-4.2112,-4.2058,-4.2261,-4.228,-4.2298,-4.2362,-4.2388,-4.2082,-4.2081,-4.208,-4.208,0,-4.1838,-4.1899,-4.1967,-4.1999,-4.2031,-4.2111,-4.2081,-4.2118,-4.2085,-4.2073,-4.2165,-4.2171,-4.2216,-4.2241,-4.221,-4.2353,-4.2324,-4.2269,-4.2179,-4.2335,-4.2394,-4.2418,-4.2093,-4.2091,-4.2088,-4.2086,0,0,-4.2095,-4.2103,-4.2129,-4.2142,-4.2156,-4.2203,-4.228,-4.2323,-4.2356,-4.2381,-4.2444,-4.2519,-4.2467,-4.2489,-4.2459,-4.2518,-4.2667,-4.2454,-4.2454,-4.2494,-4.2825,-4.2868,-4.2897,-4.2634,-4.2639,-4.2642,-4.2824,0,-4.2274,-4.2404,-4.2368,-4.2499,-4.2555,-4.2486,-4.2552,-4.2569,-4.256,-4.2606,-4.2596,-4.265,-4.2577,-4.259,-4.2646,-4.2637,-4.2733,-4.2624,-4.2693,-4.2696,-4.2691,-4.2927,-4.2972,-4.3143,-4.2847,-4.2851,-4.2853,0,-4.2499,-4.2532,-4.2669,-4.2674,-4.2696,-4.2757,-4.2794,-4.2839,-4.2857,-4.2846,-4.2871,-4.2829,-4.2905,-4.2816,-4.292,-4.2846,-4.2873,-4.2873,-4.2879,-4.2884,-4.2784,-4.2939,-4.3197,-4.3223,-4.2889,-4.2887,-4.2884,0,-4.2673,-4.2752,-4.2844,-4.2858,-4.2866,-4.291,-4.2916,-4.2928,-4.2957,-4.299,-4.3008,-4.3049,-4.3072,-4.3106,-4.3076,-4.3014,-4.3186,-4.3093,-4.318,-4.3181,-4.3219,-4.3217,-4.3485,-4.3236,-4.3236,-4.3235,-4.3235,0,-4.2877,-4.2963,-4.2922,-4.2979,-4.3073,-4.3032,-4.3127,-4.3125,-4.3136,-4.3192,-4.3134,-4.3187,-4.3145,-4.3195,-4.3173,-4.3263,-4.3274,-4.3268,-4.3261,-4.3273,-4.3274,-4.329,-4.3277,-4.3242,-4.324,-4.3239,-4.3238,0,-4.3087,-4.3063,-4.3159,-4.3159,-4.3161,-4.3231,-4.3231,-4.3284,-4.327,-4.3341,-4.3355,-4.3335,-4.3391,-4.3365,-4.3423,-4.3408,-4.3525,-4.3502,-4.3519,-4.3513,-4.3601,-4.3593,-4.3888,-4.3925,-4.3653,-4.3655,-4.3657,0,-4.3218,-4.3283,-4.329,-4.3323,-4.3332,-4.3386,-4.3415,-4.3376,-4.3409,-4.3434,-4.3484,-4.3535,-4.3573,-4.3666,-4.3656,-4.3701,-4.3679,-4.3779,-4.3685,-4.3696,-4.3681,-4.3678,-4.3684,-4.3798,-4.3802,-4.3804,-4.3806,0,-4.3454,-4.3439,-4.3483,-4.3523,-4.3559,-4.3589,-4.3613,-4.3644,-4.3606,-4.3646,-4.3702,-4.3732,-4.3792,-4.3843,-4.3882,-4.3888,-4.3842,-4.3836,-4.3858,-4.3872,-4.3879,-4.3877,-4.3571,-4.3829,-4.3827,-4.3825,-4.3824,-4.3823,-4.3629,-4.3683,-4.3697,-4.3748,-4.3762,-4.3787,-4.3837,-4.383,-4.3876,-4.3921,-4.3896,-4.3962,-4.3978,-4.4026,-4.4038,-4.409,-4.405,-4.4082,-4.4091,-4.4099,-4.4111,-4.3871,-4.4097,-4.4096,-4.4095,-4.4095,-4.4094,0,-4.3862,-4.3867,-4.3914,-4.3951,-4.3991,-4.3943,-4.3968,-4.4005,-4.4064,-4.4083,-4.4122,-4.4187,-4.4236,-4.4232,-4.4277,-4.4319,-4.4299,-4.4333,-4.4329,-4.4332,-4.4144,-4.412,-4.4348,-4.4348,-4.4348,-4.4348,-4.4348,-4.4348,-4.3988,-4.4077,-4.4064,-4.4161,-4.4165,-4.4229,-4.4248,-4.4271,-4.4286,-4.4361,-4.4401,-4.4398,-4.4407,-4.4453,-4.4497,-4.4494,-4.4514,-4.4556,-4.4546,-4.437,-4.4345,-4.4321,-4.4298,-4.4561,-4.4561,-4.4729,-4.4731,-4.4732]},{"header":{"parameterUnit":"m.s-1","parameterCategory":1,"la1":30.2991,"la2":30.254,"lo1":-89.0895,"lo2":-89.0444,"dy":0.0017,"dx":0.0017,"nx":28,"ny":28,"refTime":"2023-10-11T03:00:00:Z","depth":0,"parameterNumber":3,"parameterNumberName":"V-component_of_WINDS"},"data":[0,0,0,0,0,0,0,0,0,0,0,0,0,0,0,0,0,0,0,0,0,0,0,0,0,0,0,0,0,0,0,0,0,0,0,0,0,0,0,0,0,0,0,0,0,0,0,0,0,0,0,0,0,0,0,0,0,0,-1.0108,-1.0108,0,-1.0164,-1.0164,-1.0165,-1.0214,-1.0214,-1.0215,-1.0215,-1.0271,-1.0272,-1.0273,0,0,0,0,0,0,0,0,0,0,0,0,0,-1.0041,-1.0042,-1.0108,-1.0108,-1.0109,-1.0164,-1.0164,-1.0165,-1.0214,-1.0214,-1.0215,-1.0216,-1.0271,-1.0272,-1.0273,0,0,0,0,0,0,0,0,0,0,0,0,0,-1.0081,-1.0042,-1.0108,-1.014,-1.0143,-1.0164,-1.0165,-1.0165,-1.0213,-1.0214,-1.0215,-1.0216,-1.0271,-1.0272,-1.0274,-1.0266,0,0,-1.0278,-1.0279,0,0,0,0,0,0,0,0,-1.0078,-1.0083,-1.0134,-1.0138,-1.0142,-1.0183,-1.0162,-1.0199,-1.0213,-1.0187,-1.0215,-1.0216,-1.0241,-1.0245,-1.0254,-1.0269,-1.0271,-1.0278,-1.0279,-1.028,-1.028,0,0,0,0,0,0,0,-1.0075,-1.0081,-1.013,-1.0135,-1.0139,-1.0151,-1.0157,-1.0169,-1.0209,-1.0189,-1.0193,-1.0199,-1.0243,-1.0252,-1.0255,-1.0272,-1.0278,-1.0279,-1.028,-1.0281,-1.0283,-1.0282,0,0,0,0,0,0,-1.0068,-1.0078,-1.0128,-1.0132,-1.0111,-1.0151,-1.0159,-1.0169,-1.0209,-1.0216,-1.0198,-1.0201,-1.0249,-1.0254,-1.0258,-1.0251,-1.028,-1.0281,-1.0282,-1.0284,-1.0283,-1.0282,0,0,0,0,0,0,-1.0066,-1.0072,-1.0126,-1.0106,-1.0114,-1.0152,-1.0162,-1.0169,-1.0178,-1.0215,-1.0223,-1.02,-1.025,-1.0255,-1.0264,-1.0254,-1.0282,-1.0283,-1.0285,-1.0283,-1.0282,-1.0238,0,0,0,0,0,0,-1.0064,-1.0071,-1.0069,-1.0106,-1.0115,-1.0131,-1.0162,-1.017,-1.0181,-1.0185,-1.0219,-1.0226,-1.0251,-1.0261,-1.0265,-1.0256,-1.0284,-1.0286,-1.0284,-1.0282,-1.0241,-1.0235,-1.0231,0,0,0,0,0,-1.0062,-1.0054,-1.0069,-1.0075,-1.0113,-1.0131,-1.0136,-1.0166,-1.018,-1.0178,-1.0201,-1.0224,-1.0254,-1.0261,-1.0266,-1.0258,-1.0286,-1.0284,-1.0283,-1.0243,-1.0236,-1.0231,0,0,0,0,0,0,-1.0016,-1.006,-1.0076,-1.0081,-1.0101,-1.0139,-1.0137,-1.0158,-1.0175,-1.0179,-1.0215,-1.0222,-1.0226,-1.0243,-1.025,-1.0252,-1.0273,-1.0272,-1.0241,-1.0236,-1.0231,-1.0227,-1.0285,0,0,0,0,0,-1.0006,-1.0017,-1.0055,-1.0055,-1.0065,-1.0099,-1.0108,-1.0129,-1.0152,-1.0161,-1.0185,-1.0206,-1.022,-1.0229,-1.0244,-1.0243,-1.0251,-1.024,-1.0235,-1.0231,-1.0229,-1.023,-1.0225,-1.0275,-1.0275,-1.0276,0,0,-0.9986,-1.0012,-1.0017,-1.0046,-1.0065,-1.0075,-1.0106,-1.0116,-1.0124,-1.0162,-1.0172,-1.019,-1.0216,-1.0219,-1.0222,-1.0233,-1.0217,-1.0228,-1.0225,-1.0226,-1.0227,-1.0222,-1.0218,-1.0274,-1.0274,-1.0275,0,0,-0.9955,-0.9976,-0.9978,-0.9996,-1.0024,-1.0047,-1.0047,-1.0081,-1.0095,-1.0105,-1.0134,-1.0143,-1.0167,-1.0184,-1.0195,-1.017,-1.0191,-1.0174,-1.0149,-1.0149,-1.0145,-1.0141,-1.0132,-1.0128,-1.0172,-1.0172,-1.0172,0,-0.9927,-0.9944,-0.9977,-0.9984,-0.9996,-1.0032,-1.0034,-1.005,-1.0081,-1.0088,-1.01,-1.013,-1.015,-1.0158,-1.0151,-1.016,-1.0161,-1.017,-1.0143,-1.014,-1.0137,-1.0129,-1.0125,-1.017,-1.017,-1.017,-1.017,0,-0.9908,-0.9919,-0.9918,-0.9947,-0.9959,-0.9963,-0.9996,-1.0004,-1.0023,-1.0044,-1.0053,-1.0078,-1.0099,-1.0102,-1.0122,-1.0112,-1.0118,-1.0136,-1.0158,-1.0129,-1.0122,-1.0119,-1.0166,-1.0167,-1.0168,-1.0168,0,0,-0.9851,-0.9897,-0.9896,-0.9909,-0.9942,-0.9951,-0.9957,-0.9977,-0.9983,-1.0003,-1.0009,-1.0027,-1.0044,-1.0057,-1.0079,-1.0078,-1.0056,-1.0096,-1.0098,-1.0088,-1.0047,-1.0033,-1.0029,-1.007,-1.007,-1.0069,-1.0045,0,-0.9825,-0.9839,-0.9867,-0.9871,-0.9882,-0.9915,-0.992,-0.9941,-0.996,-0.9971,-0.9993,-1.0005,-1.0026,-1.0034,-1.0036,-1.0058,-1.0048,-1.0061,-1.0076,-1.0076,-1.0068,-1.0025,-1.0011,-0.9986,-1.0042,-1.0041,-1.0041,0,-0.9798,-0.9816,-0.9821,-0.9852,-0.9858,-0.9862,-0.9882,-0.9893,-0.9916,-0.993,-0.9944,-0.9968,-0.9975,-0.9995,-1.0005,-1.0013,-1.0021,-1.0033,-1.0033,-1.0035,-1.0057,-1.0026,-0.9979,-0.9975,-1.0037,-1.0037,-1.0037,0,-0.9755,-0.978,-0.9787,-0.9797,-0.9834,-0.9836,-0.9852,-0.9876,-0.9886,-0.9903,-0.991,-0.9928,-0.9938,-0.9951,-0.9978,-0.999,-0.9985,-1.0008,-0.9997,-0.9996,-0.9995,-0.9995,-0.9948,-0.9999,-1.0,-1.0,-1.0,0,-0.9724,-0.9726,-0.9768,-0.9772,-0.9774,-0.9807,-0.9808,-0.9827,-0.9848,-0.9855,-0.9885,-0.9891,-0.9927,-0.9938,-0.9959,-0.9964,-0.9968,-0.998,-0.9985,-0.9977,-0.9976,-0.9983,-0.9985,-0.9999,-0.9999,-0.9999,-0.9999,0,-0.9677,-0.9706,-0.9715,-0.9749,-0.9757,-0.9757,-0.9787,-0.9791,-0.9812,-0.9821,-0.9825,-0.9858,-0.9871,-0.99,-0.9921,-0.9936,-0.9936,-0.9946,-0.9928,-0.9931,-0.9919,-0.992,-0.9876,-0.9871,-0.9925,-0.9925,-0.9924,0,-0.9655,-0.9658,-0.9692,-0.9699,-0.9713,-0.9725,-0.9735,-0.9766,-0.9776,-0.9802,-0.9803,-0.9819,-0.9833,-0.9853,-0.9879,-0.9895,-0.9906,-0.9889,-0.9909,-0.99,-0.9906,-0.9905,-0.9905,-0.9885,-0.9884,-0.9884,-0.9883,0,-0.9614,-0.9628,-0.9642,-0.966,-0.9671,-0.9687,-0.9705,-0.9709,-0.9744,-0.9753,-0.9768,-0.9779,-0.98,-0.9815,-0.9835,-0.9851,-0.9873,-0.9877,-0.9875,-0.9867,-0.9856,-0.9862,-0.9916,-0.9878,-0.9878,-0.9879,-0.9879,-0.9879,-0.9579,-0.9582,-0.9607,-0.9621,-0.9637,-0.9653,-0.9658,-0.968,-0.9692,-0.9713,-0.973,-0.9743,-0.9765,-0.9794,-0.9808,-0.9818,-0.9829,-0.9827,-0.9826,-0.9825,-0.9821,-0.9854,-0.9822,-0.9822,-0.9822,-0.9822,-0.9822,0,-0.9539,-0.9556,-0.9569,-0.9592,-0.9603,-0.9623,-0.9643,-0.965,-0.9661,-0.968,-0.9694,-0.971,-0.9724,-0.9751,-0.9767,-0.977,-0.978,-0.9773,-0.9774,-0.9777,-0.9811,-0.981,-0.9765,-0.9765,-0.9765,-0.9765,-0.9765,-0.9765,-0.9519,-0.9526,-0.9542,-0.9556,-0.9574,-0.9586,-0.9596,-0.961,-0.9625,-0.9642,-0.9654,-0.9671,-0.9693,-0.9712,-0.9726,-0.9733,-0.9738,-0.9727,-0.9738,-0.9769,-0.9774,-0.978,-0.978,-0.9728,-0.9728,-0.9703,-0.9703,-0.9703]}]]